Weather in Dubovoe

Ukraine / Zakarpattia District     48°11′05″N   23°53′04″E
temp.,
°C
wind,
m/s
gust,
m/s
humid.,
%
clouds,
%
prec.,
mm/h
press.,
hPa
HPBL,
m
7 may, fri
fri700:00+1sse119648 0.0 101517
03:00+1se119430 0.0 101514
06:00+3sse1488100 0.0 1012120
09:00+5s3787100 0.0 1011291
12:00+5s2799100 7.3 1010356
15:00+6sw23100100 15.8 1010211
18:00+5ssw2499100 5.0 1009276
21:00+5s12100100 7.5 1010179
8 may, sat
sat800:00+5ssw23100100 1.4 1011255
03:00+5sw2699100 2.8 1012860
06:000nne12954 4.1 101788
09:00+3w12775 4.1 1019662
12:00+6wsw455293 0.1 10191831
15:00+7w564761 0.1 10191989
18:00+6wnw454998 0.0 10201717
21:00+1w118631 0.1 102310
9 may, sun
sun900:00−1ne11934 0.0 102611
03:00−1ne119388 0.0 102712
06:00−1ene119310 0.0 102717
09:00+6ssw226066 0.0 1026567
12:00+10sw224897 0.0 10251477
15:00+12sw32425 0.0 10241524
18:00+11sw22485 0.0 10231146
21:00+5ene117842 0.0 102510
10 may, mon
mon1000:00+4ene11815 0.0 102513
03:00+3ene11793 0.0 102513
06:00+3ene21645 0.0 102413
09:00+12s11425 0.0 1022262
12:00+17ssw22344 0.0 1021868
15:00+18ssw22351 0.0 10201116
18:00+17sw22460 0.0 1019780
21:00+10ne11790 0.0 102010
11 may, tue
tue1100:00+8ne21780 0.0 102114
03:00+8ne21780 0.0 102014
06:00+7ne21790 0.0 102014
09:00+15s10570 0.0 1018274
12:00+19sw22440 0.0 10171222
15:00+21sw23421 0.0 10151690
18:00+19ssw11511 0.0 1014989
21:00+12ene22800 0.0 101518